This is the latest recevied weather packets stored in our database for station/object N3TTT-13. If no packets are shown the sender has not sent any weather packets the latest 10 day(s).
| Time | Temp. | Humidity | Pressure | Rain* | Wind** | Luminosity | Snow |
|---|---|---|---|---|---|---|---|
| 1778012519 | 26.67° C | 46% | 1010.5 hPa | 0 mm | - | 66 W/m² | - |
| 1778012215 | 27.22° C | 44% | 1010.4 hPa | 0 mm | - | 68 W/m² | - |
| 1778011913 | 27.22° C | 45% | 1010.5 hPa | 0 mm | - | 106 W/m² | - |
| 1778011611 | 27.22° C | 43% | 1010.6 hPa | 0 mm | - | 97 W/m² | - |
| 1778011307 | 27.22° C | 44% | 1010.8 hPa | 0 mm | - | 78 W/m² | - |
| 1778011003 | 27.22° C | 43% | 1010.7 hPa | 0 mm | - | 123 W/m² | - |
| 1778010701 | 27.78° C | 41% | 1011 hPa | 0 mm | - | 78 W/m² | - |
| 1778010398 | 27.78° C | 43% | 1010.7 hPa | 0 mm | - | 86 W/m² | - |
| 1778010094 | 27.78° C | 42% | 1010.8 hPa | 0 mm | - | 68 W/m² | - |
| 1778009791 | 27.78° C | 42% | 1010.9 hPa | 0 mm | - | 274 W/m² | - |
| 1778009488 | 27.78° C | 43% | 1010.9 hPa | 0 mm | - | 187 W/m² | - |
| 1778009187 | 28.33° C | 40% | 1011 hPa | 0 mm | - | 435 W/m² | - |
| 1778008883 | 28.33° C | 40% | 1011 hPa | 0 mm | - | 532 W/m² | - |
| 1778008582 | 28.33° C | 39% | 1011 hPa | 0 mm | - | 560 W/m² | - |
| 1778008280 | 28.33° C | 40% | 1011.1 hPa | 0 mm | - | 556 W/m² | - |
| 1778007975 | 28.33° C | 40% | 1011.3 hPa | 0 mm | - | 582 W/m² | - |
| 1778007670 | 28.33° C | 40% | 1011.2 hPa | 0 mm | - | 580 W/m² | - |
| 1778007368 | 27.78° C | 40% | 1011.4 hPa | 0 mm | - | 580 W/m² | - |
| 1778007064 | 28.33° C | 41% | 1011.3 hPa | 0 mm | - | 609 W/m² | - |
| 1778006760 | 28.33° C | 38% | 1011.4 hPa | 0 mm | - | 550 W/m² | - |
| 1778006457 | 28.89° C | 40% | 1011.6 hPa | 0 mm | - | 521 W/m² | - |
| 1778006153 | 28.89° C | 40% | 1011.4 hPa | 0 mm | - | 532 W/m² | - |
| 1778005851 | 28.89° C | 41% | 1011.6 hPa | 0 mm | - | 515 W/m² | - |
| 1778005541 | 28.33° C | 39% | 1011.5 hPa | 0 mm | - | 544 W/m² | - |
| 1778005238 | 28.89° C | 43% | 1011.7 hPa | 0 mm | - | 614 W/m² | - |
* Rain latest hour (hover to see other rain measurements)
** Current wind speed in m/s (hover to see current wind gust speed)